Vertical_Velocity
1 1 -2 1 -3 -4 -1 -3 -4 1 -4 1 -1 -3 -1 -1 -0 -2 -1 -1 -0 -1 -1 -0 -1 -4 -2 0 2 -1 1 -2 -12 -2 -1 6 -15 43 15 7 -6 -18 -22
-0 -1 -1 0 -2 -5 -1 -4 2 -3 -2 1 -0 -2 -2 -1 -1 -1 -1 -1 0 -0 -1 -0 1 1 -2 -0 3 1 0 -1 -3 3 -8 5 11 10 24 2 -1 12 -2
-2 -1 -2 -2 -3 -3 -3 1 -1 -1 -1 0 -2 -2 -1 -0 0 0 -1 -2 -1 -0 -4 -1 2 2 4 3 3 3 2 -0 0 -2 9 5 -3 -29 3 9 9 1 3
1 -3 -2 -1 -3 -1 -0 2 -2 -1 3 -1 -0 -1 -1 0 -0 0 -0 1 -2 -0 -4 -2 3 -6 -2 4 2 2 2 3 2 1 2 -2 -3 -15 -2 -3 -1 -1 5
-0 -0 -4 0 -1 0 -2 -2 0 3 -4 -3 -3 -3 -1 -0 -0 1 -1 -0 -1 -3 -3 2 1 -5 -3 -2 -0 1 1 0 -1 1 2 1 -2 2 -3 -1 -2 1 15
-2 -1 -1 -3 -2 1 0 -2 -1 -6 -5 -3 -1 -2 -1 -0 -1 -1 -1 -2 -1 0 2 3 0 4 2 -2 2 -1 -1 -1 1 -1 -1 -1 0 -2 -3 -2 -3 -8 0
-0 -2 -4 0 2 -2 -2 -3 -3 -1 -2 -4 -4 -1 -0 -1 -0 -1 -2 -1 -1 -1 1 1 1 -2 -2 -1 1 4 2 -1 -1 0 2 -1 -3 0 -3 -2 -5 -3 -6
-3 -3 2 -1 -2 -2 -2 -1 -1 -2 -2 -2 -2 -1 -1 -0 -0 -1 -1 -2 -1 2 2 0 1 0 1 2 -4 -0 4 5 5 2 -1 4 3 1 2 -3 0 3 -1
-2 0 -3 -1 -1 -2 -2 -2 -1 -1 -3 -2 -2 -1 -0 -1 -1 -1 -0 0 1 1 -0 2 -2 4 -1 0 5 2 -2 -1 2 3 -1 -5 -3 7 3 6 -1 -2 -7
-1 -3 -1 -1 -1 -2 -1 -1 -1 -2 -3 -2 -2 -3 -3 -1 -0 -0 1 1 2 1 1 -1 3 -2 -0 -0 -1 2 0 2 -1 -5 2 -5 -8 -8 0 3 3 3 1
-2 -2 -1 -1 -2 -0 -1 -1 -1 -3 -3 -4 -4 -3 -2 -1 -1 -0 -0 1 1 0 -0 4 -1 -2 -2 -3 -2 -3 -6 -5 -1 1 1 2 2 -1 -6 -6 0 2 2
-2 -1 -1 -1 -1 -1 -1 -2 -2 -3 -3 -2 -2 -1 0 -0 -1 -2 -2 -2 -2 -1 -2 -3 -2 -1 -3 -1 0 0 -0 -1 2 1 -0 -1 -1 1 1 -0 0 3 2
-2 -0 -0 -1 -1 -1 -4 -2 -3 -3 -1 -1 -1 -1 -1 -0 -0 -1 -0 0 -1 -1 -2 -2 -1 -1 -0 1 3 2 1 2 1 -0 -1 -3 -3 -2 -3 1 1 -1 -3
-1 -0 -0 -1 -1 -1 -2 -1 -1 -1 -1 -1 -1 -1 -1 -0 0 -0 -0 0 -1 0 1 -1 -2 -3 -4 -4 -1 -1 -0 -1 -3 -3 -2 -3 -2 -1 1 2 2 2 1
-1 -1 -0 -1 -1 -2 -1 -1 -0 -1 -0 -0 -1 -1 -1 -1 -2 -3 -3 -2 -1 -3 -4 -2 -0 2 2 3 0 -1 -2 -1 1 2 1 0 -1 -1 -1 -1 -1 2 -0
-0 -0 -1 -1 -0 -0 0 -0 -4 -0 -1 -1 -1 -1 -2 -1 -2 -1 -1 -1 -1 -2 0 -1 -1 -1 -1 -1 -1 -2 -1 -1 -1 -2 -4 -3 -2 -2 -1 -2 -3 -3 -3
0 -1 -1 -1 -0 0 -1 -2 -1 5 -2 -1 -2 -2 -4 -0 -0 -2 -2 -2 -2 1 -0 -0 -1 -2 -2 -3 -3 -4 -4 -5 -5 -4 -2 -2 -2 -4 -3 -3 -3 -3 -1
-1 -2 -1 1 -1 -2 -2 -1 -1 -1 -3 -4 3 6 5 -1 2 2 -0 -2 -2 -2 -3 -4 -3 -2 -2 -1 -1 -2 -2 -1 -3 -4 -3 -4 -3 -4 -3 -2 -3 -5 -6
-1 -0 -1 -1 -1 -1 -1 -1 -1 -0 -1 -0 -3 -2 4 -3 -5 -1 2 2 -2 -2 -2 -2 -3 -3 -4 -4 -4 -3 -3 -3 -4 -3 -3 -3 -3 -3 -1 -2 -2 -3 -3
-1 -1 -0 -1 -1 1 1 0 -0 -1 -0 -1 -1 -1 -2 -0 -2 -3 -4 -0 -1 -2 -1 -1 -1 -1 -2 -2 -3 -4 -3 -3 -2 -2 -2 -2 -2 -3 -2 -2 -1 -2 -1
2 1 -1 -1 -1 -2 0 0 -1 -2 -1 -1 -3 1 -1 -1 -0 -1 -2 -1 -2 -3 -3 -2 -2 -2 -1 -1 -1 -1 -3 -4 -4 -4 -3 -2 -2 -2 -2 -3 -4 -2 -4
0 -1 -0 6 4 1 1 1 1 -1 -1 -2 -1 -4 -1 -1 0 -1 -2 -2 -1 -1 -2 -2 -2 -3 -2 -2 -2 -2 -2 -2 -1 -2 -2 -3 -4 -3 -3 -2 -1 -2 -4
1 -0 2 0 -2 -1 0 -0 0 -1 -1 -1 -0 0 -2 -3 -2 -1 -1 -2 -2 -1 -2 -2 -3 -2 -2 -2 -2 -3 -2 -3 -3 -4 -3 -2 -2 -2 -3 -3 -3 -2 -1
1 0 0 1 0 -1 -1 -2 -1 -2 -1 -0 0 -0 -1 -1 -1 -2 -2 -2 -2 -2 -1 -2 -2 -2 -2 -2 -2 -2 -3 -2 -2 -2 -3 -3 -2 -2 -2 -3 -3 -3 -6
-0 -1 0 0 -0 -2 -0 0 1 -2 -1 -2 -2 -1 -1 -1 -1 -2 -1 -1 -0 -1 -1 -1 -1 -1 -1 -1 -2 0 -1 -1 -1 -1 -0 -0 -1 -2 -2 -2 -3 -3 -4
1 -0 1 2 1 0 -0 -0 0 1 1 0 0 0 0 -0 -1 -1 -2 -1 -2 -2 -2 -2 0 0 -1 -1 -3 -2 -1 1 2 -2 -1 -1 -1 0 -1 0 2 -0 -1
Height
3055 3053 3052 3049 3047 3044 3040 3036 3031 3027 3024 3019 3016 3013 3010 3007 3004 3000 2996 2992 2988 2983 2977 2968 2959 2953 2947 2942 2940 2939 2940 2940 2936 2939 2951 2960 2963 2963 2968 2971 2971 2971 2973
3052 3050 3048 3045 3042 3038 3034 3029 3025 3021 3017 3013 3009 3006 3004 3000 2997 2994 2990 2986 2981 2977 2971 2964 2955 2949 2940 2934 2931 2930 2931 2932 2930 2931 2938 2947 2947 2954 2955 2961 2965 2967 2969
3048 3046 3044 3040 3036 3032 3028 3024 3019 3015 3011 3007 3004 3001 2999 2995 2992 2988 2985 2981 2975 2971 2965 2958 2951 2946 2937 2930 2925 2923 2923 2925 2925 2926 2927 2935 2943 2942 2948 2951 2955 2957 2959
3044 3041 3039 3035 3031 3027 3024 3020 3015 3011 3007 3002 2999 2997 2994 2992 2988 2985 2981 2977 2971 2967 2961 2954 2948 2942 2934 2927 2922 2919 2918 2918 2918 2919 2922 2925 2930 2935 2936 2940 2943 2945 2948
3040 3037 3034 3031 3028 3024 3021 3017 3013 3009 3005 3001 2997 2993 2990 2988 2985 2982 2978 2974 2969 2964 2958 2952 2947 2941 2934 2926 2920 2916 2913 2912 2912 2913 2914 2916 2919 2920 2922 2927 2929 2932 2937
3036 3033 3031 3028 3025 3021 3017 3014 3012 3008 3004 2999 2995 2991 2988 2985 2981 2978 2975 2971 2967 2962 2956 2951 2947 2942 2937 2929 2922 2915 2911 2909 2908 2907 2908 2909 2910 2913 2916 2917 2919 2921 2926
3031 3029 3027 3024 3021 3020 3018 3014 3011 3007 3003 3000 2996 2992 2988 2984 2981 2977 2974 2970 2966 2961 2955 2950 2946 2941 2936 2930 2924 2918 2914 2909 2906 2904 2903 2902 2902 2903 2907 2911 2911 2913 2915
3028 3026 3024 3023 3022 3019 3016 3014 3011 3007 3004 3001 2997 2993 2989 2985 2982 2978 2975 2971 2966 2961 2956 2951 2946 2941 2936 2931 2926 2921 2916 2912 2909 2906 2903 2900 2898 2898 2896 2898 2901 2904 2905
3025 3024 3024 3023 3020 3019 3017 3014 3011 3009 3006 3002 2999 2995 2992 2988 2984 2980 2976 2971 2966 2962 2957 2953 2948 2943 2938 2933 2928 2923 2918 2914 2910 2907 2905 2903 2899 2896 2893 2893 2892 2894 2894
3024 3024 3023 3022 3021 3019 3017 3015 3012 3010 3007 3004 3000 2997 2994 2990 2986 2982 2977 2972 2967 2962 2957 2953 2948 2943 2938 2933 2929 2924 2920 2916 2912 2909 2905 2902 2900 2895 2892 2889 2888 2887 2885
3024 3023 3023 3022 3021 3019 3018 3015 3013 3011 3008 3005 3001 2998 2994 2990 2986 2981 2977 2972 2967 2963 2959 2954 2949 2943 2938 2933 2928 2924 2920 2915 2912 2909 2905 2902 2898 2895 2892 2888 2885 2882 2880
3023 3024 3023 3022 3021 3020 3017 3016 3014 3011 3008 3005 3002 2998 2994 2990 2985 2981 2976 2971 2967 2963 2958 2953 2948 2943 2938 2933 2929 2925 2921 2917 2913 2909 2905 2901 2898 2895 2892 2888 2883 2879 2877
3023 3023 3023 3022 3021 3020 3018 3016 3014 3011 3008 3005 3002 2998 2994 2990 2985 2980 2975 2971 2967 2962 2957 2952 2947 2942 2938 2934 2930 2925 2921 2917 2911 2907 2903 2898 2894 2890 2887 2884 2880 2877 2873
3022 3022 3022 3022 3021 3019 3017 3015 3013 3010 3007 3004 3000 2997 2993 2989 2985 2980 2976 2971 2966 2961 2956 2951 2945 2940 2935 2931 2927 2923 2918 2913 2908 2904 2900 2895 2891 2886 2882 2878 2875 2871 2869
3021 3022 3022 3020 3019 3018 3016 3014 3011 3008 3005 3002 2998 2995 2991 2987 2982 2977 2973 2968 2963 2958 2953 2948 2943 2939 2935 2930 2924 2919 2914 2910 2905 2900 2896 2892 2887 2882 2877 2872 2867 2864 2860
3020 3021 3020 3019 3017 3015 3014 3012 3009 3006 3003 3000 2996 2992 2987 2983 2978 2973 2968 2963 2958 2953 2949 2944 2939 2934 2929 2924 2919 2914 2908 2903 2898 2894 2889 2883 2878 2874 2870 2866 2862 2857 2853
3017 3017 3017 3016 3015 3013 3011 3008 3006 3004 3000 2996 2992 2987 2983 2979 2974 2969 2964 2959 2954 2950 2944 2939 2934 2929 2924 2919 2914 2908 2904 2899 2893 2888 2883 2878 2873 2868 2863 2858 2854 2851 2849
3014 3015 3014 3013 3011 3009 3007 3004 3001 2997 2994 2991 2987 2983 2979 2973 2969 2964 2959 2953 2948 2943 2937 2933 2928 2923 2918 2913 2908 2904 2899 2894 2889 2884 2879 2873 2868 2862 2858 2854 2849 2844 2840
3010 3010 3009 3008 3006 3004 3001 2998 2994 2991 2987 2983 2978 2975 2973 2966 2960 2957 2953 2947 2941 2936 2931 2926 2921 2916 2912 2907 2903 2898 2893 2888 2883 2878 2873 2868 2863 2858 2854 2849 2845 2841 2836
3006 3005 3004 3002 3000 2998 2995 2992 2988 2984 2980 2976 2971 2968 2963 2958 2952 2947 2942 2938 2934 2929 2923 2919 2913 2909 2904 2900 2895 2891 2887 2882 2877 2872 2867 2863 2858 2853 2848 2844 2840 2835 2831
3000 2999 2998 2996 2994 2991 2988 2985 2981 2977 2973 2969 2963 2960 2957 2951 2946 2941 2935 2930 2926 2921 2915 2910 2906 2901 2897 2892 2888 2883 2879 2874 2870 2865 2861 2856 2851 2847 2843 2838 2834 2830 2825
2993 2992 2991 2989 2986 2983 2980 2977 2973 2969 2965 2961 2957 2951 2947 2943 2939 2933 2928 2923 2918 2913 2908 2903 2898 2893 2889 2885 2880 2875 2870 2866 2862 2858 2854 2850 2845 2841 2837 2832 2828 2824 2820
2985 2984 2982 2979 2977 2974 2972 2969 2965 2961 2957 2953 2948 2944 2939 2933 2929 2924 2920 2915 2910 2905 2900 2895 2891 2886 2881 2876 2872 2867 2862 2857 2853 2848 2845 2842 2838 2834 2830 2826 2821 2818 2814
2977 2975 2973 2971 2968 2965 2962 2959 2955 2951 2947 2943 2939 2934 2930 2925 2921 2916 2912 2907 2903 2898 2893 2888 2883 2878 2873 2868 2863 2859 2853 2849 2844 2840 2836 2832 2828 2824 2820 2817 2814 2811 2807
2968 2966 2965 2962 2959 2956 2953 2949 2946 2941 2938 2933 2929 2925 2921 2917 2913 2909 2904 2899 2895 2890 2886 2881 2876 2871 2866 2860 2855 2851 2846 2841 2836 2831 2827 2823 2819 2815 2811 2808 2804 2802 2798
2959 2957 2955 2952 2949 2946 2942 2939 2936 2932 2928 2925 2921 2917 2913 2909 2905 2901 2896 2892 2887 2882 2877 2873 2868 2863 2857 2852 2847 2842 2838 2834 2829 2823 2819 2815 2810 2806 2802 2799 2796 2793 2790